FENGYUN 1C DEB, 39537

Orbit data source: Space-Track

FENGYUN 1C DEB, 39537 is space debris in SSO originally from a launch on Mon, 10 May 1999 UTC launched from the Taiyaun Space Center, China (TSC). Fengyun 1C debris stems from the Chinese weather satellite Fengyun-1C, which was intentionally destroyed by a Chinese anti-satellite missile in 2007. This event dramatically increased the amount of space debris, with thousands of trackable fragments posing hazards to satellites and human spaceflight. The Fengyun 1C debris cloud has become a focal point in discussions about space sustainability and the need for international regulations to prevent the creation of new debris.

Loading next visibility...
Identifier
39537, 1999-025EWE
Orbit
SSO
Country
Flag of CNCN / PRC
Related business
Manufacturer
Unknown
Mission
Spacecraft
Bus & Motor
Unknown
Mass
Unknown
Launch date (UTC)
1999-05-10 (27 years ago)
Launch vehicle
Unknown
Launch site
Taiyaun Space Center, China (TSC)
Object type
Payload
Rocket body
Debris
Shape & HBR
Unknown shape, 0.1 m
Radar Cross Section
Small (<0.1 m²)

Expand to show TLE details & history
Last TLE update: 3 days ago

TLE from 3 days ago
0 FENGYUN 1C DEB
1 39537U 99025EWE 26102.11787278  .00001599  00000-0  12964-2 0  9992
2 39537  99.1595 249.9522 0172961  19.4803 341.2856 13.84847535609227
Epoch: 2026-04-12T02:49Z
TLE epoch observation values (Epoch: 2026-04-12T02:49:44.208Z)
Latitude
-0.00002°
Longitude
7.19058°
Altitude
829.81 km
Speed
7.499 km/s
True Right ascension
16h 39m 48s
True Declination
0° 00' 00"
Sunlit
Object was in full shadow at epoch
Visualization orbit readout
Latitude
Unknown
Longitude
Unknown
Altitude
Unknown
Speed
Unknown
Apparent Right ascension
Unknown
Apparent Declination
Unknown
Sunlit
N/A
Visualization observer readout
Local Sidereal Time
12:14:58
Azimuth
Unknown
Elevation
Unknown
Doppler factor
Unknown
Orbital elements
Apogee altitude
1,070.613 km
Perigee altitude
817.326 km
Semi-major axis
7,322.107 km
Eccentricity
0.0173
Inclination
99.1595°
RAAN
249.9522°
Arg. of periapsis
19.4803°
True anomaly
340.63641°
Mean anomaly
341.2856°
Eccentric anomaly
340.96235°
Mean motion
3.46409 °/min
Orbital period
103.92 mins
BSTAR
0.0012964
Loading maneuver chart data...
Computing Atmospheric mass density...

Documentation

Showing up to 5 results
|